• In Germany
  • List of Countries
  • For 7 days
  • Water Temperature
  • Satellite Maps
  • Weather Map
  • Weather Widgets
  • user-avatar
    Login

    Hourly Weather Saurimo

    Today, 23 November, Thursday

    Time Temperature Precipitation Wind Pressure Humidity
    00:00 +20°C° 0 mm 1 mps 668 mmHg 95%
    01:00 +20°C° 0 mm 1 mps 668 mmHg 95%
    02:00 +20°C° 0 mm 1 mps 668 mmHg 96%
    03:00 +20°C° 0 mm 1 mps 668 mmHg 96%
    04:00 +19°C° 0 mm 1 mps 668 mmHg 96%
    05:00 +20°C° 0.1 mm 1 mps 669 mmHg 94%
    06:00 +21°C° 0.1 mm 1 mps 669 mmHg 92%
    07:00 +22°C° 0.1 mm 1 mps 670 mmHg 90%
    08:00 +23°C° 0.7 mm 1 mps 670 mmHg 88%
    09:00 +24°C° 0.7 mm 1 mps 670 mmHg 86%
    10:00 +25°C° 0.7 mm 1 mps 670 mmHg 84%
    11:00 +25°C° 0.6 mm 1 mps 670 mmHg 82%
    12:00 +25°C° 0.6 mm 2 mps 670 mmHg 80%
    13:00 +26°C° 0.6 mm 2 mps 669 mmHg 78%
    14:00 +25°C° 0.3 mm 1 mps 669 mmHg 81%
    15:00 +25°C° 0.3 mm 1 mps 669 mmHg 84%
    16:00 +25°C° 0.3 mm 1 mps 669 mmHg 86%
    17:00 +23°C° 0.1 mm 1 mps 669 mmHg 90%
    18:00 +22°C° 0.1 mm 1 mps 669 mmHg 93%
    19:00 +21°C° 0.1 mm 1 mps 669 mmHg 97%
    20:00 +21°C° 0 mm 1 mps 669 mmHg 97%
    21:00 +20°C° 0 mm 1 mps 669 mmHg 97%
    22:00 +20°C° 0 mm 1 mps 669 mmHg 97%
    23:00 +20°C° 0 mm 1 mps 669 mmHg 97%

    Tomorrow, 24 November, Friday

    Time Temperature Precipitation Wind Pressure Humidity
    00:00 +17°C° 0 mm 0 mps 669 mmHg 97%
    01:00 +17°C° 0 mm 0 mps 669 mmHg 97%
    02:00 +17°C° 0 mm 0 mps 669 mmHg 97%
    03:00 +17°C° 0 mm 0 mps 669 mmHg 97%
    04:00 +18°C° 0 mm 0 mps 669 mmHg 96%
    05:00 +19°C° 0 mm 0 mps 669 mmHg 94%
    06:00 +19°C° 0 mm 0 mps 670 mmHg 92%
    07:00 +20°C° 0 mm 0 mps 670 mmHg 90%
    08:00 +22°C° 0.5 mm 0 mps 671 mmHg 83%
    09:00 +26°C° 0.5 mm 1 mps 671 mmHg 75%
    10:00 +28°C° 0.5 mm 1 mps 671 mmHg 68%
    11:00 +29°C° 0.5 mm 1 mps 671 mmHg 65%
    12:00 +28°C° 0.5 mm 0 mps 670 mmHg 63%
    13:00 +29°C° 0.5 mm 0 mps 670 mmHg 60%
    14:00 +27°C° 1.8 mm 0 mps 669 mmHg 68%
    15:00 +27°C° 1.8 mm 1 mps 668 mmHg 77%
    16:00 +26°C° 1.8 mm 1 mps 668 mmHg 85%
    17:00 +24°C° 1.6 mm 1 mps 668 mmHg 88%
    18:00 +23°C° 1.6 mm 1 mps 669 mmHg 90%
    19:00 +22°C° 1.6 mm 1 mps 669 mmHg 93%
    20:00 +22°C° 1.3 mm 1 mps 669 mmHg 93%
    21:00 +22°C° 1.3 mm 1 mps 670 mmHg 94%
    22:00 +21°C° 1.3 mm 1 mps 670 mmHg 94%
    23:00 +21°C° 0.7 mm 1 mps 670 mmHg 95%

    Day after tomorrow, 25 November, Saturday

    Time Temperature Precipitation Wind Pressure Humidity
    00:00 +21°C° 0.7 mm 1 mps 669 mmHg 95%
    01:00 +21°C° 0.7 mm 1 mps 669 mmHg 96%
    02:00 +20°C° 0 mm 1 mps 668 mmHg 97%
    03:00 +20°C° 0 mm 1 mps 668 mmHg 97%
    04:00 +20°C° 0 mm 1 mps 668 mmHg 97%
    05:00 +20°C° 0 mm 1 mps 669 mmHg 96%
    06:00 +21°C° 0 mm 1 mps 669 mmHg 94%
    07:00 +22°C° 0 mm 1 mps 670 mmHg 93%
    08:00 +23°C° 0.8 mm 1 mps 670 mmHg 89%
    09:00 +24°C° 0.8 mm 1 mps 671 mmHg 86%
    10:00 +26°C° 0.8 mm 1 mps 671 mmHg 83%
    11:00 +26°C° 1.2 mm 1 mps 670 mmHg 82%
    12:00 +26°C° 1.2 mm 1 mps 670 mmHg 80%
    13:00 +27°C° 1.2 mm 1 mps 669 mmHg 79%
    14:00 +26°C° 1.6 mm 1 mps 669 mmHg 84%
    15:00 +25°C° 1.6 mm 1 mps 668 mmHg 89%
    16:00 +23°C° 1.6 mm 2 mps 668 mmHg 94%
    17:00 +23°C° 0.9 mm 2 mps 668 mmHg 95%
    18:00 +21°C° 0.9 mm 2 mps 669 mmHg 96%
    19:00 +20°C° 0.9 mm 2 mps 670 mmHg 97%
    20:00 +20°C° 1 mm 2 mps 670 mmHg 97%
    21:00 +20°C° 1 mm 2 mps 670 mmHg 97%
    22:00 +20°C° 1 mm 2 mps 671 mmHg 97%
    23:00 +20°C° 0.8 mm 2 mps 670 mmHg 97%

    26 November, Sunday

    Time Temperature Precipitation Wind Pressure Humidity
    00:00 +19°C° 0.8 mm 2 mps 670 mmHg 97%
    01:00 +19°C° 0.8 mm 2 mps 670 mmHg 98%
    02:00 +19°C° 0.7 mm 2 mps 670 mmHg 98%
    03:00 +19°C° 0.7 mm 2 mps 670 mmHg 98%
    04:00 +19°C° 0.7 mm 2 mps 670 mmHg 98%
    05:00 +20°C° 0.6 mm 1 mps 670 mmHg 98%
    06:00 +20°C° 0.6 mm 1 mps 671 mmHg 97%
    07:00 +20°C° 0.6 mm 1 mps 671 mmHg 97%
    08:00 +20°C° 0.6 mm 1 mps 672 mmHg 96%
    09:00 +21°C° 0.6 mm 1 mps 672 mmHg 95%
    10:00 +21°C° 0.6 mm 1 mps 672 mmHg 94%
    11:00 +21°C° 0.8 mm 2 mps 672 mmHg 93%
    12:00 +21°C° 0.8 mm 2 mps 671 mmHg 91%
    13:00 +23°C° 0.8 mm 2 mps 671 mmHg 90%
    14:00 +23°C° 1 mm 2 mps 671 mmHg 90%
    15:00 +23°C° 1 mm 2 mps 670 mmHg 90%
    16:00 +23°C° 1 mm 2 mps 670 mmHg 90%
    17:00 +21°C° 0.4 mm 2 mps 671 mmHg 92%
    18:00 +21°C° 0.4 mm 1 mps 671 mmHg 94%
    19:00 +20°C° 0.4 mm 1 mps 671 mmHg 96%
    20:00 +20°C° 0 mm 1 mps 672 mmHg 97%
    21:00 +20°C° 0 mm 1 mps 672 mmHg 97%
    22:00 +19°C° 0 mm 1 mps 672 mmHg 98%
    23:00 +19°C° 0 mm 1 mps 671 mmHg 98%

    27 November, Monday

    Time Temperature Precipitation Wind Pressure Humidity
    00:00 +19°C° 0 mm 1 mps 671 mmHg 98%
    01:00 +19°C° 0 mm 1 mps 670 mmHg 99%
    02:00 +18°C° 0 mm 1 mps 670 mmHg 98%
    03:00 +18°C° 0 mm 1 mps 670 mmHg 98%
    04:00 +18°C° 0 mm 1 mps 670 mmHg 98%
    05:00 +19°C° 0 mm 1 mps 671 mmHg 96%
    06:00 +20°C° 0 mm 1 mps 671 mmHg 94%
    07:00 +20°C° 0 mm 2 mps 672 mmHg 93%
    08:00 +21°C° 0.3 mm 2 mps 672 mmHg 87%
    09:00 +24°C° 0.3 mm 1 mps 672 mmHg 81%
    10:00 +26°C° 0.3 mm 1 mps 672 mmHg 75%
    11:00 +26°C° 0.8 mm 1 mps 672 mmHg 74%
    12:00 +27°C° 0.8 mm 2 mps 671 mmHg 74%
    13:00 +27°C° 0.8 mm 2 mps 670 mmHg 73%
    14:00 +27°C° 0.6 mm 2 mps 670 mmHg 74%
    15:00 +27°C° 0.6 mm 2 mps 670 mmHg 76%
    16:00 +26°C° 0.6 mm 2 mps 669 mmHg 77%
    17:00 +25°C° 1.1 mm 1 mps 670 mmHg 83%
    18:00 +23°C° 1.1 mm 1 mps 670 mmHg 88%
    19:00 +22°C° 1.1 mm 1 mps 670 mmHg 93%
    20:00 +21°C° 0.8 mm 1 mps 671 mmHg 94%
    21:00 +21°C° 0.8 mm 1 mps 671 mmHg 94%
    22:00 +21°C° 0.8 mm 1 mps 671 mmHg 95%
    23:00 +20°C° 0.2 mm 1 mps 671 mmHg 95%

    28 November, Tuesday

    Time Temperature Precipitation Wind Pressure Humidity
    00:00 +20°C° 0.2 mm 1 mps 670 mmHg 96%
    01:00 +20°C° 0.2 mm 1 mps 670 mmHg 96%
    02:00 +20°C° 0 mm 1 mps 670 mmHg 96%
    03:00 +19°C° 0 mm 1 mps 669 mmHg 96%
    04:00 +19°C° 0 mm 1 mps 669 mmHg 97%
    05:00 +20°C° 0 mm 1 mps 670 mmHg 95%
    06:00 +21°C° 0 mm 1 mps 671 mmHg 93%
    07:00 +22°C° 0 mm 1 mps 671 mmHg 91%
    08:00 +23°C° 0.4 mm 1 mps 671 mmHg 85%
    09:00 +25°C° 0.4 mm 2 mps 672 mmHg 78%
    10:00 +26°C° 0.4 mm 2 mps 672 mmHg 72%
    11:00 +27°C° 0.3 mm 2 mps 671 mmHg 69%
    12:00 +28°C° 0.3 mm 2 mps 670 mmHg 65%
    13:00 +28°C° 0.3 mm 2 mps 670 mmHg 62%
    14:00 +28°C° 0.5 mm 2 mps 669 mmHg 67%
    15:00 +27°C° 0.5 mm 2 mps 669 mmHg 73%
    16:00 +27°C° 0.5 mm 2 mps 669 mmHg 78%
    17:00 +25°C° 0.1 mm 1 mps 669 mmHg 82%
    18:00 +24°C° 0.1 mm 1 mps 669 mmHg 86%
    19:00 +22°C° 0.1 mm 1 mps 669 mmHg 90%
    20:00 +22°C° 0 mm 1 mps 669 mmHg 91%
    21:00 +21°C° 0 mm 1 mps 669 mmHg 91%
    22:00 +21°C° 0 mm 1 mps 669 mmHg 92%
    23:00 +20°C° 0 mm 1 mps 669 mmHg 92%
    Show more